This is the latest recevied weather packets stored in our database for station/object KY4EF. If no packets are shown the sender has not sent any weather packets the latest 10 day(s).
| Time | Temp. | Humidity | Pressure | Rain* | Wind** | Luminosity | Snow |
|---|---|---|---|---|---|---|---|
| 1777523570 | 15.56° C | 88% | 1011.7 hPa | 0 mm | - | 0 W/m² | - |
| 1777523266 | 15.56° C | 88% | 1011.7 hPa | 0 mm | - | 0 W/m² | - |
| 1777522962 | 15.56° C | 86% | 1011.9 hPa | 0 mm | - | 0 W/m² | - |
| 1777522660 | 15.56° C | 89% | 1011.8 hPa | 0 mm | - | 0 W/m² | - |
| 1777522356 | 16.11° C | 85% | 1011.9 hPa | 0 mm | - | 0 W/m² | - |
| 1777522053 | 16.11° C | 85% | 1012.2 hPa | 0 mm | - | 0 W/m² | - |
| 1777521750 | 15.56° C | 86% | 1011.9 hPa | 0 mm | - | 0 W/m² | - |
| 1777521446 | 16.11° C | 87% | 1012 hPa | 0 mm | - | 0 W/m² | - |
| 1777521143 | 16.11° C | 86% | 1011.8 hPa | 0 mm | - | 0 W/m² | - |
| 1777520841 | 16.11° C | 87% | 1012.4 hPa | 0 mm | - | 0 W/m² | - |
| 1777520538 | 16.11° C | 88% | 1012.4 hPa | 0 mm | - | 0 W/m² | - |
| 1777520234 | 16.11° C | 88% | 1012.2 hPa | 0 mm | - | 0 W/m² | - |
| 1777519933 | 16.11° C | 88% | 1012.5 hPa | 0 mm | - | 0 W/m² | - |
| 1777519629 | 16.11° C | 89% | 1012.5 hPa | 0 mm | - | 0 W/m² | - |
| 1777519325 | 16.11° C | 89% | 1012.3 hPa | 0 mm | - | 0 W/m² | - |
| 1777519022 | 16.67° C | 89% | 1012.3 hPa | 0 mm | - | 0 W/m² | - |
| 1777518718 | 16.67° C | 88% | 1012 hPa | 0 mm | - | 0 W/m² | - |
| 1777518415 | 16.67° C | 88% | 1012.3 hPa | 0 mm | - | 0 W/m² | - |
| 1777518110 | 16.67° C | 90% | 1012.3 hPa | 0 mm | - | 0 W/m² | - |
| 1777517807 | 16.67° C | 90% | 1012.2 hPa | 0 mm | - | 0 W/m² | - |
| 1777517503 | 17.22° C | 89% | 1012.2 hPa | 0 mm | - | 0 W/m² | - |
| 1777517201 | 17.22° C | 90% | 1012.2 hPa | 0 mm | - | 0 W/m² | - |
| 1777516899 | 17.22° C | 90% | 1012.2 hPa | 0 mm | - | 0 W/m² | - |
| 1777516596 | 17.22° C | 90% | 1011.9 hPa | 0 mm | - | 0 W/m² | - |
| 1777516292 | 17.22° C | 91% | 1011.7 hPa | 0 mm | - | 0 W/m² | - |
* Rain latest hour (hover to see other rain measurements)
** Current wind speed in m/s (hover to see current wind gust speed)